[Iaude] MPEC J242: 2024 JN8 [a=2.43,e=0.65,i=7.5,H=26.2]

mpec at cfa.harvard.edu mpec at cfa.harvard.edu
Fri May 10 04:08:32 EDT 2024


M.P.E.C. 2024-J242                                 Issued 2024 May 10, 08:07 UT

     The Minor Planet Electronic Circulars contain information on unusual
         minor planets, routine data on comets and natural satellites,
         and occasional editorial announcements.  They are published
    on behalf of Division F of the International Astronomical Union by the
          Minor Planet Center, Smithsonian Astrophysical Observatory,
                          Cambridge, MA 02138, U.S.A.
			  
             Prepared using the Tamkin Foundation Computer Network

                              MPC at CFA.HARVARD.EDU
            URL https://www.minorplanetcenter.net/    ISSN 1523-6714

                                    2024 JN8                                    


Observations:
     K24J08N 1C2024 05 06.43098 17 27 05.50 +28 23 27.1                VEJ242703
     K24J08N 1C2024 05 06.43339 17 26 59.45 +28 19 32.6          20.5 GVEJ242703
     K24J08N 1C2024 05 06.43581 17 26 53.40 +28 15 35.5                VEJ242703
     K24J08N*1C2024 05 09.39238516 38 30.962-13 35 07.08         19.47GVEJ242G96
     K24J08N 1C2024 05 09.39663516 38 28.781-13 36 38.74         19.36GVEJ242G96
     K24J08N 1C2024 05 09.40087816 38 26.632-13 38 08.59         18.92GVEJ242G96
     K24J08N 1C2024 05 09.40514416 38 24.468-13 39 41.08               VEJ242G96
     K24J08N mC2024 05 09.42310216 38 15.306-13 46 07.46         19.54GVEJ242I52
     K24J08N mC2024 05 09.42342516 38 15.148-13 46 14.38         19.71GVEJ242I52
     K24J08N mC2024 05 09.42374016 38 14.960-13 46 21.07         19.46GVEJ242I52
     K24J08N mC2024 05 09.42404916 38 14.813-13 46 27.70         19.57GVEJ242I52
     K24J08N mC2024 05 09.47608616 37 49.177-14 04 41.95         19.47GVEJ242I52
     K24J08N mC2024 05 09.47639616 37 49.040-14 04 48.43         19.80GVEJ242I52
     K24J08N mC2024 05 09.47670416 37 48.882-14 04 54.91         20.07GVEJ242I52
     K24J08N mC2024 05 09.47701316 37 48.709-14 05 01.00         19.48GVEJ242I52
     K24J08N KB2024 05 09.59791316 37 16.821-14 46 20.74         21.2 GXEJ242Q06
     K24J08N KB2024 05 09.60491816 37 13.512-14 48 40.35         21.3 GXEJ242Q06
     K24J08N KB2024 05 09.61184816 37 10.330-14 50 58.61         21.1 GXEJ242Q06
     K24J08N KC2024 05 09.61491016 37 01.104-14 46 52.97         19.9 GVEJ242474
     K24J08N KC2024 05 09.61692816 37 00.158-14 47 32.50         19.4 GVEJ242474
     K24J08N KC2024 05 09.61894616 36 59.258-14 48 12.60         19.6 GVEJ242474
     K24J08N KC2024 05 09.62096216 36 58.284-14 48 52.06         19.8 GVEJ242474
     K24J08N KB2024 05 09.96116516 35 03.67 -16 38 04.0          19.7 GXEJ242I93
     K24J08N KB2024 05 09.96573816 35 01.85 -16 39 22.5          19.7 GXEJ242I93
     K24J08N KB2024 05 09.97022316 35 00.06 -16 40 39.9          20.3 GXEJ242I93
     K24J08N KB2024 05 09.97434116 34 58.65 -16 41 47.8          19.8 GXEJ242958
     K24J08N KB2024 05 09.98001116 34 56.33 -16 43 24.1          19.6 GXEJ242958
     K24J08N KB2024 05 09.98569216 34 54.08 -16 45 00.5          19.9 GXEJ242958
     K24J08N 1C2024 05 10.02605 16 34 35.09 -16 56 35.0          20.5 VXEJ242033
     K24J08N 1C2024 05 10.02667 16 34 34.85 -16 56 45.2          20.5 VXEJ242033
     K24J08N 1C2024 05 10.02727 16 34 34.62 -16 56 55.4          20.2 VXEJ242033
     K24J08N 1C2024 05 10.02788 16 34 34.39 -16 57 05.5          20.3 VXEJ242033
     K24J08N 1C2024 05 10.02885 16 34 34.01 -16 57 21.8          20.3 VXEJ242033
     K24J08N 1C2024 05 10.02976 16 34 33.64 -16 57 36.9          20.5 VXEJ242033

Observer details:
033 Karl Schwarzschild Observatory, Tautenburg.  Observers S. Melnikov, C.
    Hogner, F. Ludwig, M. Hartmann, B. Stecklum.  Measurer B. Stecklum.
    1.34-m f/3 Schmidt + CCD.
474 Mount John Observatory, Lake Tekapo.  Observers A. C. Gilmore, P. M.
    Kilmartin.  Measurer P. M. Kilmartin.  1.0-m f/7.7 Reflector + CCD.
703 Catalina Sky Survey.  Observer T. Beuden.  Measurers B. Gray, D. Rankin,
    F. C. Shelly.  0.68-m Schmidt + 10K CCD.
958 Observatoire de Dax.  Observer P. Dupouy.  0.50-m f/4.5 Reflector + CMO.
G96 Mt. Lemmon Survey.  Observer J. K. Hogan.  Measurers T. Beuden, V. F.
    Carvajal, D. Fay, J. B. Fazekas, D. C. Fuls, A. R. Gibbs, A. D. Grauer, H.
    Groeller, J. K. Hogan, R. A. Kowalski, S. M. Larson, G. J. Leonard, D.
    Rankin, R. L. Seaman, F. C. Shelly, K. W. Wierzchos.  1.5-m reflector +
    10K CCD.
I52 Steward Observatory, Mt. Lemmon Station.  Observer H. Groeller.  Measurers
    T. Beuden, V. F. Carvajal, D. Fay, J. B. Fazekas, D. C. Fuls, A. R. Gibbs,
    A. D. Grauer, H. Groeller, J. K. Hogan, R. A. Kowalski, S. M. Larson, G.
    J. Leonard, D. Rankin, R. L. Seaman, F. C. Shelly, K. W. Wierzchos.  1.0-m
    prime focus + CCD.
I93 St Pardon de Conques.  Observer F. Losse.  0.40-m f/3.7 reflector + CMO.
Q06 Tarui Observatory, Tarui.  Observer H. Watanabe.  0.35-m f/1.9 Schmidt-
    Cassegrain + CMO.

Orbital elements:
2024 JN8                                                 Earth MOID = 0.0144 AU
Epoch 2024 Mar. 31.0 TT = JDT 2460400.5                 MPC                     
M   0.52665              (2000.0)            P               Q                  
n   0.25940291     Peri.  119.46939     -0.98235861     -0.15654323             
a   2.4349282      Node    51.71532     +0.09124720     -0.87875459             
e   0.6528268      Incl.    7.48872     +0.16323450     -0.45087093             
P   3.80           H   26.27          G   0.15           U   7                  
Residuals in seconds of arc
240506 703  0.2-  0.4-    240509 I52  0.2+  0.2-    240509 I93  0.1-  0.3-
240506 703  0.3-  0.6+    240509 I52  0.1+  0.3-    240509 958  0.2+  0.2+
240506 703  0.2-  0.1-    240509 I52  0.3-  0.0     240509 958  0.1-  0.7+
240509 G96  0.1-  0.5-    240509 Q06  0.2-  0.4-    240509 958  0.6+  1.0+
240509 G96  0.0   0.1-    240509 Q06  0.6-  0.0     240510 033  0.4-  0.5-
240509 G96  0.4+  1.8+    240509 Q06  0.3+  0.3-    240510 033  0.3-  0.4-
240509 G96  0.7+  1.3+    240509 474  0.1-  0.1-    240510 033  0.1-  0.7-
240509 I52  0.2+  0.1-    240509 474  0.3-  0.2+    240510 033  0.0   0.7-
240509 I52  0.3+  0.1-    240509 474  0.2+  0.1-    240510 033  0.1+  0.9-
240509 I52  0.2-  0.1-    240509 474  0.4-  0.1+    240510 033  0.0   0.9-
240509 I52  0.0   0.1-    240509 I93  0.8-  0.1+
240509 I52  0.0   0.1-    240509 I93  0.4-  0.2+

Ephemeris:
2024 JN8                 a,e,i = 2.43, 0.65, 7                   q = 0.8453
Date    TT    R. A. (2000) Decl.     Delta      r    Elong.  Phase     V
2024 04 10    03 46 24.0 +39 58 28   0.2216  0.8646    46.5   122.7    27.7
...
2024 04 25    03 45 03.9 +46 47 46   0.09174 0.9365    39.0   137.4    27.5
...
2024 05 03    02 13 16.7 +67 18 42   0.02756 0.9913    51.9   126.9    23.9
...
2024 05 09    16 41 32.4 -10 55 44   0.03088 1.0377   155.6    23.7    19.9
2024 05 10    16 34 44.3 -16 45 35   0.03846 1.0458   159.3    19.9    20.3
2024 05 11    16 29 55.7 -20 38 07   0.04634 1.0540   161.4    17.8    20.6
...
2024 05 17    16 16 31.3 -29 54 08   0.09619 1.1048   165.9    12.8    22.2
...
2024 05 25    16 10 08.0 -33 04 16   0.1665  1.1761   167.9    10.4    23.4
...
2024 06 09    16 06 54.0 -34 10 30   0.3119  1.3157   162.3    13.6    25.1

A. U. Tomatic                (C) Copyright 2024 MPC           M.P.E.C. 2024-J242





More information about the Iaude mailing list